www.pogodaiklimat.ru

Погода и климат >> Архив погоды >> Бельгия >> Шарлеруа


ПОГОДА в Шарлеруа

  • Прогноз погоды в Шарлеруа
  • Монитор погоды в Шарлеруа

АРХИВ ПОГОДЫ в Шарлеруа

Время (UTC), дата Ветер
(напр.,м/с)
 
Видим.   Явления Облачность Т
(С)
Тd
(С)
f
(%)
Тe
(С)
Тes
(С)
Комфортность P
(гПа)
Po
(гПа)
Тmin
(С)
Tmax
(С)
R
(мм)
R24
(мм)
S
(см)
05 10.07 нст 1
{2}
25 км 4/0
[Ac trans]
+11.9 +6.1 68 +12 +13 1021.6 999.0
06 10.07 ЮВ 1
{4}
25 км 5/0
[Ac trans Ci fib]
+13.9 +7.8 67 +14 +16 1021.3 998.9 +10.8
07 10.07 Ю 2
{3}
25 км 5/0
[Ac trans]
+16.2 +6.6 53 +16 +20 1021.2 998.9
08 10.07 нст 1
{3}
25 км 5/0
[Ac trans Ci fib]
+18.8 +6.4 44 +20 +27 1020.9 998.8
09 10.07 штиль 0
{3}
25 км 6/6 1500 м
[Sc diur, vesp Ac trans Ci fib]
+19.2 +4.9 39 +19 +26 1020.9 998.9
10 10.07 нст 1
{5}
25 км 8/6 1440 м
[Sc diur, vesp Ac trans Ci fib]
+20.6 +5.4 37 +22 +28 комфорт 1020.6 998.6
11 10.07 З 2
{5}
25 км 8/6 1440 м
[Sc diur, vesp Ac trans Ci fib]
+21.0 +6.7 39 +23 +28 комфорт 1020.4 998.5
12 10.07 СЗ 2
{5}
25 км 8/5 1350 м
[Sc diur, vesp Ac trans Ci fib]
+23.2 +8.6 39 +24 +30 комфорт 1019.8 998.1
13 10.07 СЗ 3
{5}
25 км 6/4 900 м
[Cu Sc Ci fib]
+22.6 +9.1 42 +24 +31 комфорт 1019.4 997.6
14 10.07 нст 3
{6}
25 км 8/8 900 м
[Cu Sc]
+22.5 +10.8 48 +25 +27 комфорт 1019.1 997.4
15 10.07 СЗ 2
{6}
25 км 6/4 900 м
[Cu Sc Ci fib]
+23.3 +11.3 47 +26 +31 жарко 1018.5 996.8
16 10.07 С 3
{5}
25 км 6/4 900 м
[Cu Sc Ci fib]
+22.1 +11.7 52 +24 +27 комфорт 1018.4 996.6
17 10.07 СЗ 2
{5}
25 км 6/6 1440 м
[Sc diur, vesp Ac trans Ci fib]
+22.1 +12.2 53 +24 +26 комфорт 1018.0 996.3
18 10.07 СЗ 1
{6}
15 км 9/4 1440 м
[Sc Ac trans Ci fib]
+21.5 +12.1 55 +24 +24 комфорт 1017.9 996.1 +23.7
19 10.07 З 1
{3}
25 км 9/3 1500 м
[Sc Ac trans Ci fib]
+20.8 +12.2 58 +24 +24 комфорт 1017.8 995.9
20 10.07 штиль 0
{2}
25 км 9/5 1500 м
[Sc Ac trans]
+20.4 +11.9 58 +22 +22 комфорт 1017.4 995.5
21 10.07 В 1
{3}
25 км 9/5 1500 м
[Sc Ac trans Ci fib]
+18.8 +12.5 67 +21 +21 комфорт 1017.3 995.3
22 10.07 ЮВ 2
{4}
25 км 5/1 1500 м
[Sc Ac trans Ci fib]
+18.4 +13.0 71 +19 +19 1017.0 995.0
23 10.07 ЮВ 2
{4}
25 км 5/1 1500 м
[Sc Ac trans Ci fib]
+17.6 +12.3 71 +18 +18 1016.7 994.6
00 11.07 Ю 2
{4}
25 км {дождь} 8/1 1500 м
[Sc Ac trans Ci fib]
+16.9 +12.4 75 +17 +17 1016.2 994.1
01 11.07 Ю 2
{3}
25 км 8/1 1500 м
[Sc diur, vesp Ac trans]
+16.6 +11.9 74 +17 +17 1015.8 993.7
02 11.07 Ю 3
{5}
25 км 8/1 1500 м
[Sc Ac trans Ci fib]
+16.4 +11.6 73 +16 +16 1015.3 993.1
03 11.07 Ю 2
{5}
25 км слаб. ливневой дождь 8/6 1500 м
[Sc Ac trans]
+17.2 +12.2 72 +18 +18 1014.8 992.7
04 11.07 Ю 2
{3}
25 км в посл. час ливневой дождь 9/9 1200 м
[Cu Sc]
+17.6 +12.2 71 +18 +18 1014.6 992.6
05 11.07 Ю 3
{4}
25 км слаб. дождь 9/3 1500 м
[Sc Ac trans]
+17.0 +13.1 78 +17 +17 1014.4 992.3
06 11.07 Ю 3
{5}
25 км 9/3 1500 м
[Sc Ac trans]
+17.4 +13.1 76 +17 +18 1014.0 992.0 +16.2
07 11.07 Ю 2
{5}
25 км слаб. ливневой дождь 9/3 1500 м
[Sc Ac trans]
+17.3 +14.4 83 +18 +19 1014.1 992.0
08 11.07 ЮЗ 3
{5}
25 км в посл. час ливневой дождь 9/3 1500 м
[Sc Ac trans]
+17.9 +14.3 79 +18 +20 1014.2 992.2
09 11.07 ЮЗ 4
{6}
25 км 9/0 2000 м
[Ac trans]
+18.5 +13.8 74 +19 +24 1014.2 992.2
10 11.07 ЮЗ 3
{7}
25 км 9/0 2000 м
[Ac trans]
+20.2 +13.6 66 +23 +28 комфорт 1013.8 992.0
11 11.07 З 4
{7}
25 км 9/1 1200 м
[Cu hum Ac trans Ci fib]
+22.6 +13.2 55 +26 +31 жарко 1013.4 991.8
12 11.07 З 5
{8}
25 км {ливн. осадки} 9/1 1260 м
[Cu hum Ac trans]
+22.8 +11.1 48 +25 +29 комфорт 1013.0 991.4 0.2
13 11.07 З 4
{8}
25 км 9/1 1260 м
[Cu hum Ac trans]
+22.5 +11.3 49 +25 +29 комфорт 1013.4 991.8
14 11.07 З 5
{7}
25 км 8/1 1260 м
[Cu hum Ac trans]
+23.3 +10.3 44 +25 +29 комфорт 1013.0 991.5
15 11.07 З 4
{8}
25 км 6/1 1500 м
[Cu hum Ac trans Ci fib]
+24.7 +11.0 42 +26 +30 жарко 1012.8 991.3
16 11.07 З 3
{9}
25 км 6/1 1500 м
[Cu hum Ac trans Ci fib]
+24.7 +10.8 42 +26 +29 жарко 1012.6 991.1
17 11.07 З 4
{8}
25 км 4/1 1500 м
[Cu hum Ac trans]
+23.7 +10.7 44 +25 +27 комфорт 1012.4 990.9
18 11.07 З 3
{9}
25 км 4/4 1500 м
[Cu med, cong Ac trans Ci fib]
+23.6 +10.6 44 +25 +26 комфорт 1012.6 991.0 +25.1 0.2
19 11.07 СЗ 2
{6}
25 км 6/0
[Ac trans]
+21.9 +10.7 49 +24 +24 комфорт 1012.7 991.0
20 11.07 З 1
{3}
25 км 6/0
[Ac trans]
+20.9 +10.2 50 +24 +24 комфорт 1012.9 991.2
21 11.07 ЮЗ 1
{6}
25 км 6/0
[Ac trans]
+18.8 +10.4 58 +21 +21 комфорт 1013.1 991.2
22 11.07 Ю 2
{3}
25 км 5/0
[Ac trans]
+19.4 +10.4 56 +21 +21 комфорт 1013.0 991.2
23 11.07 ЮЗ 2
{3}
25 км 8/0
[Ac trans]
+18.6 +11.4 63 +20 +20 1013.0 991.1
00 12.07 ЮЗ 3
{6}
25 км 8/8 1500 м
[Sc Ac trans]
+18.3 +9.2 55 +19 +19 1013.0 991.1
01 12.07 З 3
{5}
25 км 6/6 1500 м
[Sc]
+17.1 +8.9 58 +17 +17 1012.3 990.3
02 12.07 З 3
{5}
25 км 9/5 1500 м
[Sc Ac trans Ci sp]
+16.1 +9.3 64 +16 +16 1012.6 990.5
03 12.07 З 2
{5}
25 км 8/5 1500 м
[Sc diur, vesp Ac trans Ci sp]
+14.7 +9.3 70 +14 +14 1012.5 990.3
04 12.07 ЮЗ 3
{4}
25 км 6/3 1500 м
[Sc Ac trans Cc]
+14.7 +9.2 70 +14 +14 1012.1 989.9
05 12.07 ЮЗ 4
{5}
25 км 6/1 1500 м
[Sc Ac trans Ci sp]
+15.0 +10.2 73 +14 +14 1012.5 990.3
06 12.07 З 4
{7}
25 км 5/3 270 м
[St Ac cast Ci sp]
+15.1 +12.1 82 +14 +15 1012.7 990.6 +14.1
07 12.07 ЮЗ 3
{7}
25 км 5/1 270 м
[St Ac cast Ci sp]
+16.0 +13.2 83 +16 +19 1012.7 990.6
08 12.07 ЮЗ 4
{6}
25 км 5/3 270 м
[St Ac trans Ci sp]
+16.6 +13.2 80 +16 +20 1013.0 991.0
09 12.07 З 4
{7}
25 км 8/6 600 м
[Cu Sc Ac trans]
+20.0 +13.1 64 +22 +24 комфорт 1012.9 991.1
10 12.07 З 4
{7}
25 км 8/6 600 м
[Cu Sc Ac trans Ci sp]
+20.1 +14.4 70 +22 +25 комфорт 1012.8 991.1
11 12.07 З 3
{6}
25 км 9/8 600 м
[Cu Sc]
+21.6 +13.9 62 +24 +27 комфорт 1012.4 990.7
12 12.07 З 4
{10}
20 км в посл. час ливневой дождь 8/5 450 м
[Cb cap Ac trans Ci sp]
+22.3 +14.7 62 +26 +30 жарко 1012.1 990.5 0.6
13 12.07 СЗ 4
{11}
20 км в посл. час ливневой дождь 8/6 540 м
[Cb cap Ac trans Ci sp]
+22.2 +14.0 60 +25 +29 комфорт 1012.4 990.8
14 12.07 СЗ 2
{11}
15 км слаб. ливневой дождь, в посл. час гроза 9/8 540 м
[Cb cap]
+18.5 +16.2 86 +20 +22 1013.2 991.3
15 12.07 СЗ 5
{11}
15 км в посл. час ливневой дождь 8/5 450 м
[Cb cap Ac trans Ci sp]
+19.4 +15.8 80 +21 +23 комфорт 1013.4 991.5
16 12.07 З 5
{10}
20 км 5/4 750 м
[Cu Sc Ci sp]
+19.8 +12.6 63 +21 +23 комфорт 1013.9 992.1
17 12.07 СЗ 4
{10}
20 км 4/3 900 м
[Cu hum Ci sp]
+20.4 +11.7 57 +22 +24 комфорт 1014.2 992.4
18 12.07 С 4
{11}
20 км {гроза, ливн. осадки} 6/1 900 м
[Cu hum Ac trans Ci sp]
+19.5 +11.7 61 +21 +21 комфорт 1014.6 992.7 +23.5 4
19 12.07 С 3
{7}
20 км 1/1 900 м
[Cu Sc Ac trans]
+18.5 +12.6 68 +19 +19 1015.3 993.3
20 12.07 СЗ 2
{5}
20 км 5/5 2000 м
[Sc]
+17.3 +12.2 72 +18 +18 1016.0 994.0
21 12.07 СЗ 1
{7}
20 км 8/4 1500 м
[Sc Ac trans]
+16.4 +12.7 79 +17 +17 1016.9 994.7
22 12.07 З 1
{3}
20 км 3/3 1500 м
[Sc]
+14.9 +12.4 85 +15 +15 1017.1 994.8
23 12.07 З 1
{3}
20 км ясно +14.4 +12.5 88 +15 +15 1017.4 995.1
00 13.07 СЗ 2
{7}
20 км ясно +14.0 +12.4 90 +13 +13 1017.5 995.1
01 13.07 СЗ 2
{4}
20 км ясно +14.3 +12.6 90 +14 +14 1017.7 995.4
02 13.07 СЗ 2
{4}
18 км 6/6 570 м
[Sc diur, vesp]
+14.4 +12.6 89 +14 +14 1017.7 995.4
03 13.07 СЗ 1
{4}
15 км 9/9 300 м
[Sc]
+14.5 +12.9 90 +15 +15 1018.0 995.7
04 13.07 СЗ 2
{3}
15 км 9/8 660 м
[Sc]
+14.6 +13.3 92 +14 +14 1018.4 996.1
05 13.07 З 3
{5}
15 км 9/9 800 м
[Sc]
+14.7 +13.3 91 +14 +14 1018.7 996.4
06 13.07 СЗ 1
{5}
12 км 9/9 270 м
[Sc]
+15.1 +12.9 87 +16 +16 1018.9 996.7 +14.0
07 13.07 З 3
{5}
12 км 9/9 330 м
[Sc]
+15.8 +13.0 83 +15 +16 1019.4 997.1
08 13.07 СЗ 2
{5}
3200 м слаб. морось 9/9 90 м
[Frnb]
+14.7 +13.9 95 +14 +15 1019.9 997.6
09 13.07 нст 2
{5}
15 км в посл. час морось 8/8 360 м
[Cu Sc]
+16.2 +14.5 90 +16 +19 1019.8 997.6
10 13.07 СЗ 3
{6}
15 км 8/8 360 м
[Cu Sc]
+18.1 +14.1 77 +18 +21 1019.8 997.7
11 13.07 З 2
{5}
25 км 8/8 500 м
[Cu Sc]
+19.3 +14.0 71 +21 +25 комфорт 1019.7 997.7
12 13.07 СЗ 3
{6}
25 км 8/8 500 м
[Cu Sc]
+19.7 +14.1 70 +22 +25 комфорт 1019.7 997.8 0.2
13 13.07 СЗ 3
{7}
25 км 8/8 660 м
[Cu Sc]
+19.4 +12.9 66 +21 +24 комфорт 1019.7 997.7
14 13.07 СЗ 3
{7}
25 км 8/8 840 м
[Cu Sc]
+19.9 +12.5 62 +22 +24 комфорт 1019.6 997.7
15 13.07 СЗ 4
{10}
25 км 8/8 840 м
[Cu Sc]
+19.7 +12.8 64 +21 +23 комфорт 1019.6 997.7
16 13.07 СЗ 5
{9}
25 км 8/8 840 м
[Cu Sc]
+19.7 +12.6 64 +21 +22 комфорт 1019.8 997.9
17 13.07 СЗ 3
{9}
25 км 5/5 840 м
[Cu Sc Ci fib]
+19.6 +12.5 64 +21 +23 комфорт 1019.7 997.8
18 13.07 СЗ 3
{10}
25 км 6/5 840 м
[Cu Sc Ci sp]
+18.2 +12.5 69 +19 +19 1019.9 997.8 +21.4 0.2
19 13.07 С 4
{8}
25 км 6/5 750 м
[Cu Sc Ci sp]
+17.6 +12.6 72 +17 +17 1020.2 998.1
20 13.07 СЗ 3
{7}
25 км 6/5 750 м
[Cu Sc Ci sp]
+16.2 +11.5 74 +16 +16 1020.7 998.5
21 13.07 С 2
{8}
25 км 5/4 600 м
[Cu Sc Ci sp]
+15.1 +12.0 82 +15 +15 1021.2 998.8
22 13.07 С 3
{6}
25 км 4/3 840 м
[Sc Ci sp]
+14.2 +11.8 85 +13 +13 1021.3 998.9
23 13.07 С 3
{6}
25 км 3/1 450 м
[Sc Ci sp]
+13.2 +11.3 88 +12 +12 1021.4 998.9
00 14.07 С 3
{8}
25 км 5/4 450 м
[Sc Ci sp]
+12.9 +11.2 89 +11 +11 1021.2 998.6
01 14.07 С 2
{4}
25 км 6/6 300 м
[Sc Ci sp]
+13.3 +11.7 90 +13 +13 1021.3 998.8
02 14.07 С 2
{4}
25 км 8/8 300 м
[Sc]
+13.5 +11.9 90 +13 +13 1021.1 998.6
03 14.07 С 2
{4}
15 км 8/8 300 м
[Sc]
+13.5 +11.8 89 +13 +13 1020.7 998.3
04 14.07 С 3
{4}
15 км 9/9 300 м
[Sc]
+13.5 +11.3 87 +12 +12 1020.5 998.0
05 14.07 СВ 3
{6}
20 км 9/9 300 м
[Sc]
+13.4 +10.4 82 +12 +12 1020.4 997.9
06 14.07 С 5
{7}
20 км 9/9 300 м
[Sc]
+13.4 +10.8 84 +11 +11 1020.8 998.3 +12.6
07 14.07 С 3
{7}
20 км 9/9 180 м
[Sc]
+13.4 +10.8 84 +12 +13 1021.1 998.6
08 14.07 СВ 5
{8}
20 км 9/9 360 м
[Sc]
+14.8 +9.8 72 +13 +14 1021.2 998.8
09 14.07 СВ 5
{8}
20 км 9/9 400 м
[Sc]
+16.1 +10.1 68 +15 +16 1021.1 998.8
10 14.07 С 4
{8}
20 км 9/9 700 м
[Cu Sc]
+15.8 +10.3 70 +15 +16 1021.2 998.9
11 14.07 С 4
{7}
20 км 9/9 700 м
[Cu Sc]
+16.3 +10.6 69 +16 +17 1021.1 998.9
12 14.07 С 4
{8}
20 км 9/9 840 м
[Cu Sc]
+17.4 +10.7 65 +17 +18 1020.9 998.8
13 14.07 С 5
{7}
20 км 9/9 840 м
[Cu Sc]
+17.3 +10.3 63 +17 +18 1020.6 998.4
14 14.07 С 5
{6}
20 км 9/9 840 м
[Cu Sc]
+17.1 +10.9 67 +16 +17 1020.6 998.4
15 14.07 С 5
{8}
20 км 9/9 840 м
[Cu Sc]
+18.0 +10.3 61 +18 +18 1020.3 998.2
16 14.07 С 5
{8}
20 км 9/9 840 м
[Cu Sc]
+18.1 +10.6 62 +18 +18 1020.2 998.1
17 14.07 СВ 5
{8}
20 км 9/9 900 м
[Cu Sc]
+17.1 +10.6 66 +16 +17 1020.4 998.2
18 14.07 С 3
{8}
20 км 9/9 900 м
[Cu Sc]
+16.8 +10.7 67 +17 +17 1020.5 998.3 +18.9
19 14.07 С 3
{6}
20 км 9/9 840 м
[Cu Sc]
+16.3 +10.8 70 +16 +16 1020.6 998.4
20 14.07 С 2
{6}
20 км 9/9 840 м
[Cu Sc]
+16.0 +11.3 74 +16 +16 1020.7 998.4
21 14.07 С 2
{6}
20 км 8/8 720 м
[Cu Sc]
+15.4 +11.7 79 +15 +15 1020.8 998.5
22 14.07 СЗ 3
{5}
20 км 8/8 660 м
[Cu Sc]
+14.1 +10.9 81 +13 +13 1021.1 998.7
23 14.07 С 3
{5}
20 км 8/8 660 м
[Cu Sc]
+13.5 +10.6 83 +12 +12 1021.2 998.7
00 15.07 С 3
{6}
20 км 3/3 1200 м
[Sc Ci fib]
+12.3 +10.1 86 +11 +11 1021.2 998.6
01 15.07 С 3
{5}
20 км 1/1 1200 м
[Sc Ci fib]
+11.5 +9.6 88 +10 +10 1021.2 998.5
02 15.07 С 3
{5}
20 км 1/0
[Ci fib]
+10.9 +9.4 90 +9 +9 1020.9 998.2
03 15.07 С 2
{5}
18 км 1/1 450 м
[Sc Ci fib]
+10.4 +9.1 92 +9 +9 1020.9 998.2
04 15.07 С 1
{3}
18 км 4/1 600 м
[Sc Ci sp]
+10.2 +9.0 92 +10 +10 1021.0 998.3
05 15.07 С 1
{3}
18 км 9/8 720 м
[Sc]
+11.2 +9.5 89 +11 +11 1021.1 998.4
06 15.07 С 1
{5}
18 км 9/9 800 м
[Sc]
+12.1 +9.8 86 +12 +12 1021.1 998.5 +9.9
07 15.07 С 2
{4}
18 км 9/9 870 м
[Sc]
+13.6 +10.2 80 +13 +13 1021.2 998.7
08 15.07 СВ 2
{5}
18 км 9/9 480 м
[Cu Sc]
+14.7 +7.7 63 +14 +15 1021.2 998.8
09 15.07 С 3
{7}
20 км 9/9 720 м
[Cu Sc]
+15.0 +8.0 63 +14 +15 1021.3 998.9
10 15.07 СВ 4
{6}
20 км 9/9 870 м
[Sc]
+15.5 +7.9 61 +15 +16 1021.1 998.7
11 15.07 С 3
{6}
20 км 9/9 930 м
[Sc]
+16.6 +8.4 58 +16 +18 1021.0 998.7
12 15.07 С 3
{7}
20 км 9/9 930 м
[Sc]
+16.8 +8.9 60 +17 +18 1021.0 998.8
13 15.07 С 4
{7}
20 км 9/9 960 м
[Sc]
+17.1 +9.1 59 +17 +18 1020.9 998.7
14 15.07 С 4
{6}
20 км 9/9 800 м
[Cu Sc]
+15.9 +9.8 67 +15 +16 1021.1 998.8
15 15.07 С 4
{7}
20 км 9/9 720 м
[Cu Sc]
+16.8 +9.9 64 +16 +17 1021.1 998.9
16 15.07 С 4
{7}
20 км 9/9 800 м
[Cu Sc]
+16.4 +9.7 65 +16 +16 1020.8 998.6
17 15.07 С 3
{6}
20 км 9/9 800 м
[Cu Sc]
+16.5 +9.3 62 +16 +17 1020.4 998.2
18 15.07 СВ 4
{7}
20 км 9/9 800 м
[Cu Sc]
+16.7 +9.1 61 +16 +16 1020.3 998.1 +17.2
19 15.07 С 3
{5}
20 км 9/9 800 м
[Cu Sc]
+16.1 +9.5 65 +16 +16 1020.4 998.1
20 15.07 С 3
{5}
20 км 9/9 800 м
[Cu Sc]
+15.6 +10.5 72 +15 +15 1020.5 998.2
21 15.07 С 3
{5}
20 км 9/9 900 м
[Sc]
+15.0 +10.6 75 +14 +14 1020.8 998.4
22 15.07 С 2
{4}
20 км 9/9 900 м
[Sc]
+14.5 +10.5 77 +14 +14 1020.9 998.5
23 15.07 С 2
{4}
20 км 9/9 900 м
[Sc]
+14.2 +11.1 82 +14 +14 1020.9 998.5
00 16.07 С 2
{5}
20 км 9/9 840 м
[Sc]
+14.0 +11.0 82 +13 +13 1020.8 998.4
01 16.07 С 2
{3}
20 км 9/9 840 м
[Sc]
+13.7 +10.9 83 +13 +13 1020.8 998.3
02 16.07 С 2
{3}
20 км 9/9 450 м
[Sc]
+13.4 +11.3 87 +13 +13 1020.5 998.0
03 16.07 СВ 2
{3}
20 км 9/9 360 м
[Sc]
+13.1 +10.9 86 +12 +12 1020.3 997.8
04 16.07 С 2
{3}
20 км 9/9 360 м
[Sc]
+13.0 +11.0 88 +12 +12 1020.4 997.9
05 16.07 С 2
{3}
20 км 9/9 360 м
[Sc]
+13.2 +10.7 85 +12 +13 1020.4 998.0
06 16.07 нст 1
{3}
20 км 9/9 360 м
[Sc]
+13.6 +10.9 84 +14 +14 1020.7 998.2 +12.9
07 16.07 штиль 0
{2}
20 км 9/9 360 м
[Sc]
+13.8 +10.3 79 +13 +14 1020.7 998.3
08 16.07 штиль 0
{3}
20 км 9/9 360 м
[Sc]
+14.2 +9.8 75 +14 +15 1020.7 998.3
09 16.07 СЗ 2
{4}
20 км 9/9 750 м
[Sc]
+14.9 +9.5 70 +15 +16 1020.6 998.3
10 16.07 С 2
{4}
20 км 9/9 750 м
[Sc]
+15.5 +9.5 67 +15 +17 1020.5 998.1
11 16.07 нст 1
{4}
20 км 9/9 750 м
[Sc]
+16.2 +9.4 64 +17 +19 1020.2 998.0
12 16.07 штиль 0
{4}
20 км 8/8 840 м
[Sc Ci fib]
+17.7 +9.3 58 +18 +22 1019.8 997.6
13 16.07 С 2
{5}
20 км 5/5 840 м
[Sc Ci fib]
+18.6 +9.7 56 +20 +27 1019.4 997.4
14 16.07 С 2
{6}
20 км 5/5 840 м
[Sc Ci fib]
+19.9 +10.3 54 +22 +28 комфорт 1019.1 997.1
15 16.07 С 2
{6}
20 км 1/1 840 м
[Sc Ci fib]
+19.6 +10.0 54 +21 +30 комфорт 1018.8 996.9
16 16.07 нст 2
{6}
20 км 6/1 840 м
[Sc Cs]
+19.2 +9.3 53 +21 +26 комфорт 1018.3 996.3
17 16.07 СЗ 2
{6}
20 км 6/1 840 м
[Sc Cs]
+19.4 +9.3 52 +21 +24 комфорт 1018.2 996.2
18 16.07 нст 1
{6}
20 км 5/0
[Ci fib]
+19.6 +10.2 55 +22 +23 комфорт 1017.9 996.0 +20.2
19 16.07 СЗ 1
{3}
20 км 3/0
[Ci fib]
+18.7 +10.3 58 +20 +21 1017.8 995.8
20 16.07 СЗ 2
{3}
20 км 3/0
[Ci fib]
+17.0 +10.6 66 +17 +17 1018.1 995.9
21 16.07 С 2
{3}
20 км 1/0
[Ci fib]
+15.9 +10.4 70 +16 +16 1018.2 996.0
22 16.07 С 1
{2}
20 км 1/0
[Ci fib]
+14.5 +10.0 74 +15 +15 1018.2 995.8
23 16.07 СВ 1
{2}
20 км 1/0
[Ci fib]
+13.7 +10.1 79 +14 +14 1018.1 995.7
00 17.07 СВ 1
{3}
20 км 1/0
[Ci fib]
+12.6 +10.4 86 +13 +13 1018.1 995.6
01 17.07 штиль 0
{1}
20 км 1/0
[Ci fib]
+12.1 +10.3 89 +12 +12 1017.9 995.4
02 17.07 штиль 0
{1}
20 км 1/0
[Ci fib]
+11.7 +10.4 92 +11 +11 1017.6 995.0
03 17.07 ЮЗ 1
{1}
12 км 1/0
[Ci fib]
+10.8 +9.8 94 +10 +10 1017.2 994.6

 

Местоположение метеостанции Шарлеруа (Бельгия): широта 50.47 долгота 4.45 высота над уровнем моря 192 м.

В архиве по умолчанию представлена погода в Шарлеруа за последнюю неделю. Архивные данные за месяц целиком и за предыдущие месяцы, начиная с января 2011 года, Вы можете получить, выбрав интересующий диапазон дат из раскрывающегося списка и нажав кнопку "Ввод!".


*Определитесь, кто Вы:
робот инопланетянин человек

Внимание! Время в таблицах - всемирное. Для получения местного времени необходимо прибавить поправку, которая равна 1 ч.

Смотрите также архив погоды в соседних городах и на ближайших метеорологических станциях:

Погода в Эрнаже (Бельгия) (28 км)
Погода во Флорене (Бельгия) (30 км)
Погода в Уккеле (Бельгия) (37 км)
Погода в Бовешене (Бельгия) (38 км)
Погода в Дурбе (Бельгия) (43 км)
Погода в Шьевре (Бельгия) (45 км)
Погода в Брюсселе (Бельгия) (48 км)
Погода в Гумане (Бельгия) (64 км)
Погода в Мелле (Бельгия) (72 км)
Погода в Шаффене (Бельгия) (73 км)

Пояснения к столбцам:

Ветер - указаны скорость ветра в м/с - средняя за 10 мин, порывы в срок и между сроками (в фигурных скобках) и направление, откуда дует ветер: С - северный, СВ - северо-восточный, В - восточный, ЮВ - юго-восточный, Ю - южный, ЮЗ - юго-западный, З - западный, СЗ - северо-западный.
Видимость - горизонтальная дальность видимости в метрах или километрах. При видимости от 1 до 10 км при отсутствии осадков обычно наблюдается дымка, при ухудшении видимости до 1 км и менее - туман. В сухую погоду видимость может ухудшаться дымом, пылью или мглою.
Явления - указаны атмосферные явления, наблюдавшиеся в срок или в последний час перед сроком; фигурными скобками обозначены явления, наблюдавшиеся между сроками (за 1-3 часа до срока); квадратными скобками обозначены град или гололедные отложения с указанием их диаметра в мм.
Облачность - указаны через наклонную черту общая и нижняя облачность в баллах и высота нижней границы облаков в метрах; квадратными скобками обозначены формы облаков: Ci - перистые, Cs - перисто-слоистые, Cc - перисто-кучевые, Ac - высококучевые, As - высокослоистые, Sc - слоисто-кучевые, Ns - слоисто-дождевые, Cu - кучевые, Cb - кучево-дождевые. Подробнее классификацию облаков см. в Атласе облаков (PDF).
T - Температура воздуха - температура, измеренная на высоте 2 м над землей.
Td - Температура точки росы - температура, при понижении до которой содержащийся в воздухе водяной пар достигнет насыщения.
f - Относительная влажность воздуха - влажноcть воздуха, измеренная на высоте 2 м над землей.
Te - Эффективная температура - температура, которую ощущает одетый по сезону человек в тени. Характеристика душности погоды. При расчете учитывается влияние влажности воздуха и скорости ветра на теплоощущения человека.
Tes - Эффективная температура на солнце - температура, которую ощущает человек, с поправкой на солнечный нагрев. Характеристика знойности погоды. Зависит от высоты солнца над горизонтом, облачности и скорости ветра. Ночью, в пасмурную погоду, а также при ветре 12 м/с и более поправка равна нулю.
P - Атмосферное давление - приведенное к уровню моря атмосферное давление.
Po - Атмосферное давление - измеренное на уровне метеостанции атмосферное давление.
Tmin - Минимальная температура - минимум температуры воздуха на высоте 2 м над землей.
Tmax - Максимальная температура - максимум температуры воздуха на высоте 2 м над землей.
R - Количество осадков - Количество выпавших осадков за период времени, мм. При наведении курсора мыши на число - период времени, за который выпало указанное количество осадков.
R24 - Количество осадков - Количество выпавших осадков за 24 часа, мм.
S - Снежный покров - Высота снежного покрова, см. При наведении курсора мыши на число - состояние снежного покрова и степень покрытия местности в баллах.